Location: Biharia
(46.4333°N, 22.8000°E)
Time: 11:01:25
(UTC+00:00)

Okean-O - Pass Details

Date: 16 October 2021
Orbit: 639 x 640 km, 98.2° (Epoch: 08 December)

Event Time Altitude Azimuth Distance (km) Brightness Sun altitude
Exits shadow 18:07:50 25° 201° (SSW) 1,296 4.2 -26.0°
Maximum altitude 18:10:03 46° 261° (W) 870 3.6 -26.4°
Drops below altitude 10° 18:14:20 10° 335° (NNW) 2,043 5.7 -27.1°
Sets 18:16:38 0° 341° (NNW) 2,957 6.5 -27.5°
